Location: Unnamed
(23.5608°S, 46.6833°W)
Time: 06:12:11
(UTC-03:00)

CUTE-I - Visible Passes

Search period start: 24 July 2024 00:00
Search period end: 03 August 2024 00:00
Orbit: 806 x 822 km, 98.7° (Epoch: 23 July)

Date Brightness Start Highest point End Pass type
(mag) Time Alt. Az. Time Alt. Az. Time Alt. Az.
24 Jul ? 04:36:56 10° ENE 04:39:54 15° ESE 04:42:51 10° SE visible
24 Jul ? 06:14:16 10° N 06:19:21 46° W 06:24:33 10° SSW visible
24 Jul ? 18:40:09 10° S 18:45:20 52° WSW 18:50:27 10° NNW visible
25 Jul ? 05:51:30 10° N 05:56:51 82° WNW 06:02:17 10° SSW visible
25 Jul ? 18:17:30 10° SSE 18:22:53 90° ENE 18:28:11 10° NNW visible
26 Jul ? 05:29:10 10° NNE 05:34:24 57° ESE 05:39:41 10° S visible
26 Jul ? 19:37:19 10° SW 19:39:48 13° WSW 19:42:15 10° W visible
27 Jul ? 05:07:15 10° NE 05:12:00 33° ESE 05:16:46 10° S visible
27 Jul ? 19:13:21 10° SSW 19:17:30 23° WSW 19:21:38 10° WNW visible
28 Jul ? 04:45:57 10° ENE 04:49:40 19° ESE 04:53:23 10° SSE visible
28 Jul ? 18:50:10 10° S 18:55:08 40° WSW 19:00:03 10° NW visible
29 Jul ? 04:26:17 10° E 04:27:24 11° ESE 04:28:30 10° SE visible
29 Jul ? 06:01:24 10° N 06:06:43 64° WNW 06:12:04 10° SSW visible
29 Jul ? 18:27:23 10° S 18:32:43 71° WSW 18:37:58 10° NNW visible
30 Jul ? 05:38:53 10° NNE 05:44:13 74° ESE 05:49:37 10° S visible
30 Jul ? 18:04:54 10° SSE 18:10:13 66° ENE 18:15:27 10° N visible
30 Jul ? 19:49:19 10° WSW 19:49:31 10° WSW 19:49:42 10° WSW visible
31 Jul ? 05:16:46 10° NE 05:21:47 42° ESE 05:26:50 10° S visible
31 Jul ? 19:23:40 10° SSW 19:27:15 18° WSW 19:30:48 10° WNW visible
01 Aug ? 04:55:11 10° ENE 04:59:25 24° ESE 05:03:41 10° SSE visible
01 Aug ? 19:00:14 10° SSW 19:04:54 32° WSW 19:09:32 10° NW visible
02 Aug ? 04:34:26 10° E 04:37:06 14° ESE 04:39:47 10° SE visible
02 Aug ? 06:11:22 10° N 06:16:32 50° W 06:21:46 10° SSW visible
02 Aug ? 18:37:16 10° S 18:42:30 55° WSW 18:47:38 10° NNW visible
